Date String (YYYY-MM-DD hh:mm:ss) UTC,Instrument flags,Ambient pressure (hPa),Sample flow (lpm),Bypass flow (lpm),Sample temperature (°C),Ambient temperature (°C),ASC tube jacket temperature (°C),LED temperature (°C),Box temperature (°C),Sample RH (%),Span deviation,Mass concentration (μg/m³),Mass concentration (μg/m³),Mass concentration (μg/m³)
DateTimeUTC,F1_M11,P_M11,Q1_M11,Q2_M11,T1_M11,T2_M11,T3_M11,T4_M11,T5_M11,U1_M11,ZSPAN_M11,X0_M11,X2_M11,X1_M11
2022-02-11 17:00:00,,0827.6,5.00,0.00,21.5,22.8,00.0,30.4,23.6,14.1,0000.0,0005.85,0001.17,0000.96
2022-02-11 17:01:00,,0827.6,4.99,0.00,21.6,22.7,00.0,30.4,23.7,14.0,0000.0,0005.83,0001.18,0000.95
2022-02-11 17:02:00,,0827.6,5.00,0.00,21.7,22.3,00.0,30.4,23.6,14.0,0000.0,0005.85,0001.19,0000.94
2022-02-11 17:03:00,,0827.6,5.00,0.00,21.6,22.0,00.0,30.4,23.4,13.9,0000.0,0005.92,0001.22,0000.94
2022-02-11 17:04:00,,0827.6,5.00,0.00,21.6,21.7,00.0,30.5,23.4,14.1,0000.0,0006.03,0001.25,0000.94
2022-02-11 17:05:00,,0827.6,5.00,0.00,21.6,21.6,00.0,30.5,23.3,14.1,0000.0,0006.00,0001.26,0000.95
2022-02-11 17:06:00,,0827.7,5.01,0.00,21.6,21.4,00.0,30.5,23.3,14.0,0000.0,0006.00,0001.26,0000.94
2022-02-11 17:07:00,,0827.6,4.99,0.00,21.6,21.3,00.0,30.5,23.2,13.9,0000.0,0005.95,0001.26,0000.94
2022-02-11 17:08:00,,0827.7,5.00,0.00,21.6,21.3,00.0,30.5,23.2,13.9,0000.0,0006.06,0001.28,0000.93
2022-02-11 17:09:00,,0827.7,5.00,0.00,21.5,21.2,00.0,30.5,23.2,13.9,0000.0,0005.57,0001.29,0000.93
2022-02-11 17:10:00,,0827.6,5.01,0.00,21.5,21.1,00.0,30.5,23.2,13.9,0000.0,0005.44,0001.28,0000.92
2022-02-11 17:11:00,,0827.6,5.00,0.00,21.5,21.1,00.0,30.5,23.2,14.0,0000.0,0005.52,0001.31,0000.92
2022-02-11 17:12:00,,0827.6,5.00,0.00,21.5,21.0,00.0,30.5,23.1,13.9,0000.0,0003.79,0001.30,0000.93
2022-02-11 17:13:00,,0827.7,5.00,0.00,21.4,20.9,00.0,30.5,23.1,13.9,0000.0,0003.49,0001.27,0000.93
2022-02-11 17:14:00,,0827.7,4.99,0.00,21.4,20.9,00.0,30.5,23.0,13.9,0000.0,0003.40,0001.23,0000.93
2022-02-11 17:15:00,,0827.7,5.00,0.00,21.4,20.8,00.0,30.5,23.1,14.1,0000.0,0003.32,0001.21,0000.93
2022-02-11 17:16:00,,0827.7,5.01,0.00,21.4,20.8,00.0,30.5,23.1,14.1,0000.0,0003.26,0001.19,0000.92
2022-02-11 17:17:00,,0827.7,4.99,0.00,21.4,20.8,00.0,30.4,23.1,14.1,0000.0,0003.23,0001.17,0000.93
2022-02-11 17:18:00,,0827.7,5.00,0.00,21.4,20.8,00.0,30.4,23.1,14.0,0000.0,0003.36,0001.19,0000.93
2022-02-11 17:19:00,,0827.7,5.01,0.00,21.4,20.8,00.0,30.4,23.1,14.0,0000.0,0002.74,0001.18,0000.93
2022-02-11 17:20:00,,0827.7,5.01,0.00,21.4,20.9,00.0,30.4,23.1,14.1,0000.0,0001.90,0001.18,0000.94
2022-02-11 17:21:00,,0827.7,5.00,0.00,21.4,20.9,00.0,30.4,23.1,13.9,0000.0,0001.96,0001.17,0000.93
2022-02-11 17:22:00,,0827.7,4.99,0.00,21.4,20.9,00.0,30.4,23.1,13.9,0000.0,0002.14,0001.17,0000.93
2022-02-11 17:23:00,,0827.7,5.00,0.00,21.4,20.9,00.0,30.4,23.1,14.0,0000.0,0002.28,0001.16,0000.93
2022-02-11 17:24:00,,0827.8,5.00,0.00,21.4,20.9,00.0,30.4,23.1,13.9,0000.0,0002.23,0001.15,0000.92
2022-02-11 17:25:00,,0827.7,5.01,0.00,21.4,20.8,00.0,30.4,23.0,13.9,0000.0,0002.28,0001.16,0000.92
2022-02-11 17:26:00,,0827.7,4.99,0.00,21.4,20.8,00.0,30.4,23.0,13.9,0000.0,0002.27,0001.15,0000.92
2022-02-11 17:27:00,,0827.7,5.00,0.00,21.4,20.8,00.0,30.4,23.0,14.0,0000.0,0002.32,0001.18,0000.91
2022-02-11 17:28:00,,0827.7,5.00,0.00,21.3,20.8,00.0,30.4,23.0,13.9,0000.0,0002.43,0001.22,0000.91
2022-02-11 17:29:00,,0827.7,5.00,0.00,21.3,20.7,00.0,30.4,23.0,14.1,0000.0,0002.32,0001.21,0000.90
2022-02-11 17:30:00,,0827.7,4.99,0.00,21.3,20.7,00.0,30.4,23.0,14.1,0000.0,0002.53,0001.22,0000.90
2022-02-11 17:31:00,,0827.7,5.00,0.00,21.4,21.0,00.0,30.4,23.1,13.9,0000.0,0002.56,0001.20,0000.89
2022-02-11 17:32:00,,0827.7,5.01,0.00,21.5,21.9,00.0,30.5,23.4,13.8,0000.0,0002.44,0001.19,0000.89
2022-02-11 17:33:00,,0827.8,4.99,0.00,21.7,22.9,00.0,30.5,23.8,13.8,0000.0,0002.14,0001.16,0000.89
2022-02-11 17:34:00,,0827.8,5.00,0.00,21.8,22.8,00.0,30.6,23.9,13.8,0000.0,0001.97,0001.17,0000.89
2022-02-11 17:35:00,,0827.8,5.00,0.00,21.8,22.5,00.0,30.6,23.8,13.6,0000.0,0002.10,0001.19,0000.89
2022-02-11 17:36:00,,0827.8,5.00,0.00,21.8,22.2,00.0,30.6,23.7,13.6,0000.0,0002.15,0001.21,0000.89
2022-02-11 17:37:00,,0827.8,5.00,0.00,21.8,22.0,00.0,30.6,23.6,13.6,0000.0,0002.23,0001.24,0000.90
2022-02-11 17:38:00,,0827.9,5.00,0.00,21.8,21.7,00.0,30.6,23.5,13.5,0000.0,0002.21,0001.23,0000.92
2022-02-11 17:39:00,,0827.9,5.01,0.00,21.7,21.5,00.0,30.6,23.4,13.6,0000.0,0002.17,0001.21,0000.93
2022-02-11 17:40:00,,0827.9,4.99,0.00,21.7,21.4,00.0,30.6,23.4,13.7,0000.0,0002.55,0001.22,0000.93
2022-02-11 17:41:00,,0827.9,5.01,0.00,21.7,21.3,00.0,30.6,23.3,13.9,0000.0,0002.50,0001.23,0000.93
2022-02-11 17:42:00,,0827.9,5.01,0.00,21.7,21.2,00.0,30.6,23.4,14.0,0000.0,0002.55,0001.26,0000.94
2022-02-11 17:43:00,,0827.9,4.99,0.00,21.6,21.2,00.0,30.6,23.3,13.8,0000.0,0002.89,0001.28,0000.94
2022-02-11 17:44:00,,0827.8,4.99,0.00,21.6,21.1,00.0,30.6,23.3,13.7,0000.0,0003.75,0001.30,0000.94
2022-02-11 17:45:00,,0827.8,5.01,0.00,21.6,21.1,00.0,30.6,23.2,13.7,0000.0,0003.93,0001.32,0000.95
2022-02-11 17:46:00,,0827.8,4.99,0.00,21.6,21.0,00.0,30.6,23.2,13.7,0000.0,0004.76,0001.31,0000.96
2022-02-11 17:47:00,,0827.7,5.00,0.00,21.5,20.9,00.0,30.6,23.1,13.8,0000.0,0004.80,0001.32,0000.97
2022-02-11 17:48:00,,0827.7,4.99,0.00,21.5,20.9,00.0,30.6,23.1,13.8,0000.0,0004.71,0001.29,0000.97
2022-02-11 17:49:00,,0827.8,5.00,0.00,21.5,20.8,00.0,30.6,23.1,13.7,0000.0,0005.82,0001.33,0000.97
2022-02-11 17:50:00,,0827.7,5.01,0.00,21.5,20.8,00.0,30.6,23.1,13.8,0000.0,0005.93,0001.33,0000.96
2022-02-11 17:51:00,,0827.8,4.99,0.00,21.5,20.8,00.0,30.6,23.1,13.9,0000.0,0005.67,0001.35,0000.96
2022-02-11 17:52:00,,0827.8,5.01,0.00,21.4,20.7,00.0,30.5,23.1,13.8,0000.0,0005.63,0001.35,0000.98
2022-02-11 17:53:00,,0827.8,4.99,0.00,21.4,20.7,00.0,30.5,23.0,13.8,0000.0,0005.55,0001.36,0000.99
2022-02-11 17:54:00,,0827.7,4.99,0.00,21.4,20.7,00.0,30.5,23.0,13.8,0000.0,0005.40,0001.35,0001.00
2022-02-11 17:55:00,,0827.7,5.02,0.00,21.4,20.7,00.0,30.5,23.0,13.9,0000.0,0004.52,0001.37,0001.01
2022-02-11 17:56:00,,0827.7,4.98,0.00,21.3,20.7,00.0,30.5,23.0,13.9,0000.0,0004.46,0001.36,0001.02
2022-02-11 17:57:00,,0827.7,5.01,0.00,21.3,20.7,00.0,30.5,23.0,14.1,0000.0,0003.54,0001.35,0001.02
2022-02-11 17:58:00,,0827.7,5.00,0.00,21.3,20.7,00.0,30.5,23.0,14.0,0000.0,0003.51,0001.35,0001.01
2022-02-11 17:59:00,,0827.8,5.00,0.00,21.3,20.7,00.0,30.4,23.0,14.0,0000.0,0004.46,0001.36,0001.00
